IHOPSAT-TD

导读

IHOPSAT-TD(又名IHI-SAT)是由美国发射的3U立方卫星,于2019年12月11日发射,后从国际空间站释放入轨,运行在约400公里的近地轨道。 该卫星由IHI株式会社与东北大学空间机器人实验室联合研发,核心任务是采集海上船舶自动识别系统数据,转发至地面站监测海域船舶拥堵情况,为船舶航行安全和海域管理提供数据支撑。卫星采用低成本商用方案,针对性设计了对地姿态控制系统,能保障天线持续对准海面,提升数据采集效率。

Basic Information
目录编号:
44859
目录名称:
IHOPSAT-TD
国际标识:
2019-089H
轨道中心:
EARTH
卫星名称:
IHOPSAT-TD
卫星全名:
--
卫星状态:
在轨 (已飞行2460 天)
发射日期:
2019-12-11 UTC
国别 :
美国 (US)
星等 :
--
Orbit Information
数据来源 国际轨道数据
星历时间: 2026-09-05T17:13:37+0800
12小时前
查看轨道信息
半长轴: 6907.697km
偏心率: 0.0005266
轨道倾角: 36.967°
近地点辐角 193.873°
升交点赤经 274.876°
平近点角 166.188°
近地点: 525.922km
远地点: 533.198km
周期: 95.227分钟
每日圈数: 15.121778
Detailed Information
使用方式:
暂无
2D Orbit Map
3D Orbit Map
Orbit Altitude Analysis Chart
Orbit Inclination Analysis Chart
Orbit Comprehensive Analysis Chart
View Comprehensive Chart
Conjunction Data List
Event ID Objects TCA Miss Dist (km) Collision Risk Probability Collision Risk Index (CRI) Action
CDM_260902-034504-485906-119124
2026-09-02T
03:45:38+0000
2.514 km
极远距离
1.264212E-6 低风险 0.37